Content
SEND FEEDBACK

Daily
Averages
Monthly
Summary
Turkey

KILIS, TURKEY


Home > Middle East > Turkey
Elevation: 638 meters     Latitude: 36 06N     Longitude: 037 24E

WEATHER
 
SELECT A DAY
Number of Records: 214,786;   Date Range: 7/1/96 - 11/25/14
 
SHARE

PRINT THIS DATA

[ ← Previous Day ]
WEATHER ALMANAC - 25 FEBRUARY, 2013
[ Next Day → ]
[ °F ]   °C
Weather ElementAverageHighLow
Temperature10.3 °C17 °C (11:50 am)4 °C (12:50 am)
Dewpoint4.1 °C7 °C (8:20 am)1 °C (10:20 am)
Humidity68.6 %93 % (12:50 am)30 % (2:00 pm)
Barometer1025.4 hPa1027.4 hPa (8:00 am)1024 hPa (3:20 am)
Wind Speed3.4 km/h11.1 km/h (9:20 am)
Weather ElementAverage
Visibility9.7 km
Wind DirectionESE (104.4 °)

Weather ElementTotal
Precipitation---
Heating Degree Days7.8 (Base 18.3)
Growing Degree Days0.5 (Base 10)
Averaged from 51 records on 25 February, 2013
WEATHER CONDITIONS BREAKOUT
WIND DIRECTION BREAKOUT
WEATHER BY HOUR - 25 FEBRUARY, 2013
[ °F ]   °C
Local TimeTemperatureDewpointHumidityBarometerVisibilityWind DirectionWind SpeedGust SpeedPrecipitationEventsConditions
12:50 AM4 °C3 °C93 %1025.1 hPaCalmClear
1:20 AM4 °C3 °C93 %1025.1 hPaCalmClear
1:50 AM4 °C3 °C93 %1025.1 hPaCalmClear
2:00 AM4.4 °C3.3 °C89 %1025.4 hPa9.7 kmCalm
2:20 AM4 °C3 °C93 %1025.1 hPaCalmClear
2:50 AM5 °C4 °C93 %1025.1 hPaCalmClear
3:20 AM5 °C4 °C93 %1024 hPaVariable3.7 km/hClear
3:50 AM5 °C4 °C93 %1025.1 hPaVariable3.7 km/hClear
4:20 AM5 °C3 °C87 %1025.1 hPaCalmClear
4:50 AM4 °C3 °C93 %1025.1 hPaVariable1.9 km/hClear
5:20 AM5 °C3 °C87 %1025.1 hPaVariable1.9 km/hClear
5:50 AM5 °C3 °C87 %1025.1 hPaNorth (360°)5.6 km/hClear
6:20 AM4 °C2 °C87 %1025.1 hPaCalmClear
6:50 AM4 °C2 °C87 %1026.1 hPaVariable1.9 km/hClear
7:20 AM5 °C4 °C93 %1026.1 hPaCalmClear
7:50 AM8 °C6 °C87 %1026.1 hPaCalmClear
8:00 AM7.8 °C5.6 °C80 %1027.4 hPa9.7 kmCalm
8:20 AM11 °C7 °C76 %1026.1 hPaCalmClear
8:50 AM13 °C7 °C67 %1026.1 hPaCalmClear
9:20 AM14 °C4 °C51 %1026.1 hPaNorth (350°)11.1 km/hClear
9:50 AM15 °C3 °C45 %1026.1 hPaNorth (360°)9.3 km/hClear
10:20 AM16 °C1 °C36 %1026.1 hPaSW (230°)5.6 km/hClear
10:50 AM16 °C1 °C36 %1026.1 hPaSE (130°)7.4 km/hClear
11:20 AM16 °C1 °C36 %1026.1 hPaSouth (190°)5.6 km/hClear
11:50 AM17 °C1 °C34 %1026.1 hPaCalmClear
12:20 PM17 °C3 °C39 %1026.1 hPaESE (120°)7.4 km/hClear
12:50 PM16 °C3 °C42 %1025.1 hPaEast (90°)7.4 km/hClear
1:20 PM17 °C4 °C42 %1025.1 hPaVariable5.6 km/hClear
1:50 PM17 °C4 °C42 %1025.1 hPaSouth (170°)7.4 km/hClear
2:00 PM16.7 °C3.9 °C30 %1025.1 hPa9.7 kmSouth (170°)7.4 km/h
2:20 PM17 °C4 °C42 %1025.1 hPaSSE (150°)7.4 km/hClear
2:50 PM17 °C4 °C42 %1025.1 hPaESE (120°)5.6 km/hClear
3:20 PM16 °C4 °C45 %1025.1 hPaSSE (150°)9.3 km/hClear
3:50 PM17 °C4 °C42 %1025.1 hPaSSW (210°)5.6 km/hClear
4:20 PM16 °C5 °C48 %1024 hPaSSE (160°)7.4 km/hClear
4:50 PM15 °C6 °C55 %1024 hPaSE (140°)9.3 km/hClear
5:20 PM14 °C5 °C55 %1025.1 hPaSouth (190°)7.4 km/hClear
5:50 PM13 °C5 °C58 %1025.1 hPaSSW (210°)5.6 km/hClear
6:20 PM11 °C6 °C71 %1025.1 hPaCalmClear
6:50 PM12 °C5 °C62 %1025.1 hPaVariable1.9 km/hClear
7:20 PM11 °C5 °C67 %1025.1 hPaVariable1.9 km/hClear
7:50 PM11 °C6 °C71 %1025.1 hPaCalmClear
8:00 PM10.6 °C5.6 °C63 %1025.7 hPa9.7 kmCalm
8:20 PM9 °C6 °C82 %1025.1 hPaCalmClear
8:50 PM9 °C5 °C76 %1025.1 hPaWNW (300°)3.7 km/hClear
9:20 PM8 °C5 °C81 %1025.1 hPaWNW (290°)1.9 km/hClear
9:50 PM7 °C5 °C87 %1025.1 hPaWNW (300°)3.7 km/hClear
10:20 PM7 °C5 °C87 %1025.1 hPaCalmClear
10:50 PM6 °C4 °C87 %1025.1 hPaWNW (300°)3.7 km/hClear
11:20 PM7 °C5 °C87 %1025.1 hPaCalmClear
11:50 PM7 °C5 °C87 %1024 hPaNW (320°)3.7 km/hClear
Hourly data recorded from LTAJ, located 0 kilometers away from Kilis, Turkey







STORIES FROM OUR PARTNERS